Weather History for Cushing, OK

Change the Weather History Date:

Sunday, May 13, 2012

  Actual Average Record
Temperature  
Mean Temperature 68 °F -  
Max Temperature 78 °F 76 °F 93 °F (1956)
Min Temperature 59 °F 56 °F 38 °F (1966)
Cooling Degree Days 4    
Growing Degree Days 18 (Base 50)    
Moisture  
Dew Point 57 °F    
Average Humidity 69    
Maximum Humidity 88    
Minimum Humidity 42    
Precipitation  
Precipitation 0.00 in - - ()
Sea Level Pressure  
Sea Level Pressure 30.19 in    
Wind  
Wind Speed 3 mph (NNE)    
Max Wind Speed 9 mph    
Max Gust Speed -    
Visibility 10 miles    
Events Rain    
Averages and records for this station are not official NWS values.
T = Trace of Precipitation, MM = Missing Value Source: NWS Daily Summary

Daily Weather History Graph

Daily Weather History Graph

Search for Another Location

Airport:

Trip Planner

Search our weather history database for the weather conditions in past years. The results will help you decide how hot, cold, wet, or windy it might be!

Date:

Astronomy

May. 13, 2012 Rise Set
Actual Time 6:22 AM CDT 8:24 PM CDT
Civil Twilight 5:54 AM CDT 8:53 PM CDT
Nautical Twilight 5:19 AM CDT 9:27 PM CDT
Astronomical Twilight 4:42 AM CDT 10:05 PM CDT
Moon 2:15 AM CDT (5/13) 1:59 PM CDT (5/13)
Length of Visible Light 14h 58m
Length of Day
14h 02m
Last Quarter, 42% of the Moon is Illuminated
May 13
Last Quarter
May 20
New
May 28
First Quarter
Jun 4
Full
Jun 11
Last Quarter

Hourly Weather History & Observations

Time (CDT) Temp. Dew Point Humidity Pressure Visibility Wind Dir Wind Speed Gust Speed Precip Events Conditions
12:15 AM 66.2 °F 59.0 °F 78% 30.20 in 10.0 mi North 3.5 mph - N/A   Clear
12:35 AM 64.4 °F 59.0 °F 83% 30.20 in 10.0 mi NNW 4.6 mph - N/A   Scattered Clouds
12:55 AM 64.4 °F 59.0 °F 83% 30.20 in 10.0 mi Calm Calm - N/A Rain Light Rain
1:15 AM 62.6 °F 59.0 °F 88% 30.20 in 10.0 mi Calm Calm - N/A Rain Light Rain
1:35 AM 62.6 °F 59.0 °F 88% 30.20 in 10.0 mi Calm Calm - N/A   Clear
1:55 AM 62.6 °F 59.0 °F 88% 30.20 in 10.0 mi Calm Calm - N/A   Clear
2:15 AM 62.6 °F 59.0 °F 88% 30.19 in 10.0 mi Calm Calm - N/A   Clear
2:35 AM 62.6 °F 59.0 °F 88% 30.19 in 10.0 mi Calm Calm - N/A   Clear
2:55 AM 62.6 °F 59.0 °F 88% 30.19 in 10.0 mi North 3.5 mph - N/A   Clear
3:15 AM 62.6 °F 59.0 °F 88% 30.19 in 10.0 mi North 3.5 mph - N/A   Clear
3:35 AM 60.8 °F 57.2 °F 88% 30.19 in 10.0 mi North 3.5 mph - N/A   Clear
3:55 AM 62.6 °F 57.2 °F 82% 30.19 in 10.0 mi Calm Calm - N/A   Scattered Clouds
4:15 AM 60.8 °F 57.2 °F 88% 30.19 in 10.0 mi North 3.5 mph - N/A   Clear
4:35 AM 60.8 °F 57.2 °F 88% 30.20 in 10.0 mi North 3.5 mph - N/A   Clear
4:55 AM 60.8 °F 57.2 °F 88% 30.20 in 10.0 mi Calm Calm - N/A   Clear
5:15 AM 60.8 °F 57.2 °F 88% 30.21 in 10.0 mi Calm Calm - N/A   Scattered Clouds
5:35 AM 60.8 °F 57.2 °F 88% 30.20 in 10.0 mi Calm Calm - N/A   Clear
5:55 AM 60.8 °F 57.2 °F 88% 30.21 in 10.0 mi Calm Calm - N/A   Scattered Clouds
6:15 AM 60.8 °F 57.2 °F 88% 30.21 in 10.0 mi Calm Calm - N/A   Clear
6:35 AM 59.0 °F 55.4 °F 88% 30.21 in 10.0 mi Calm Calm - N/A   Clear
7:15 AM 60.8 °F 57.2 °F 88% 30.23 in 10.0 mi Calm Calm - N/A   Clear
7:35 AM 60.8 °F 57.2 °F 88% 30.23 in 10.0 mi North 3.5 mph - N/A   Clear
7:55 AM 62.6 °F 57.2 °F 82% 30.23 in 10.0 mi NNE 4.6 mph - N/A   Clear
8:15 AM 62.6 °F 57.2 °F 82% 30.24 in 10.0 mi NNE 4.6 mph - N/A   Clear
8:35 AM 64.4 °F 57.2 °F 77% 30.24 in 10.0 mi NNE 3.5 mph - N/A   Clear
8:55 AM 64.4 °F 57.2 °F 77% 30.24 in 10.0 mi North 5.8 mph - N/A   Clear
9:15 AM 64.4 °F 57.2 °F 77% 30.24 in 10.0 mi NNE 4.6 mph - N/A   Clear
9:35 AM 66.2 °F 57.2 °F 73% 30.24 in 10.0 mi NE 4.6 mph - N/A   Clear
9:55 AM 68.0 °F 59.0 °F 73% 30.23 in 10.0 mi NNE 5.8 mph - N/A   Clear
10:15 AM 68.0 °F 59.0 °F 73% 30.23 in 10.0 mi Calm Calm - N/A   Clear
10:35 AM 69.8 °F 59.0 °F 68% 30.23 in 10.0 mi North 4.6 mph - N/A   Clear
11:15 AM 71.6 °F 59.0 °F 64% 30.23 in 10.0 mi Calm Calm - N/A   Clear
11:35 AM 73.4 °F 60.8 °F 65% 30.23 in 10.0 mi North 6.9 mph - N/A   Scattered Clouds
12:15 PM 73.4 °F 59.0 °F 61% 30.23 in 10.0 mi NE 5.8 mph - N/A   Clear
12:35 PM 73.4 °F 59.0 °F 61% 30.23 in 10.0 mi North 8.1 mph - N/A   Scattered Clouds
12:55 PM 75.2 °F 59.0 °F 57% 30.23 in 10.0 mi North 4.6 mph - N/A   Scattered Clouds
1:15 PM 77.0 °F 59.0 °F 54% 30.22 in 10.0 mi North 6.9 mph - N/A   Clear
1:35 PM 77.0 °F 59.0 °F 54% 30.22 in 10.0 mi North 8.1 mph - N/A   Scattered Clouds
1:55 PM 77.0 °F 59.0 °F 54% 30.21 in 10.0 mi North 6.9 mph - N/A   Clear
2:15 PM 77.0 °F 59.0 °F 54% 30.20 in 10.0 mi North 4.6 mph - N/A   Scattered Clouds
2:35 PM 77.0 °F 55.4 °F 47% 30.19 in 10.0 mi North 6.9 mph - N/A   Clear
2:55 PM 78.8 °F 55.4 °F 44% 30.18 in 10.0 mi NNE 5.8 mph - N/A   Clear
3:15 PM 78.8 °F 57.2 °F 47% 30.18 in 10.0 mi North 9.2 mph - N/A   Clear
3:35 PM 78.8 °F 55.4 °F 44% 30.17 in 10.0 mi North 5.8 mph - N/A   Clear
3:55 PM 78.8 °F 55.4 °F 44% 30.16 in 10.0 mi ENE 8.1 mph - N/A   Scattered Clouds
4:15 PM 78.8 °F 55.4 °F 44% 30.15 in 10.0 mi NE 6.9 mph - N/A   Scattered Clouds
4:35 PM 78.8 °F 55.4 °F 44% 30.15 in 10.0 mi NE 5.8 mph - N/A   Scattered Clouds
4:55 PM 78.8 °F 55.4 °F 44% 30.14 in 10.0 mi North 5.8 mph - N/A   Clear
5:15 PM 78.8 °F 53.6 °F 42% 30.14 in 10.0 mi ENE 6.9 mph - N/A   Scattered Clouds
5:35 PM 78.8 °F 53.6 °F 42% 30.13 in 10.0 mi NE 5.8 mph - N/A   Scattered Clouds
5:55 PM 78.8 °F 53.6 °F 42% 30.13 in 10.0 mi NNE 4.6 mph - N/A   Scattered Clouds
6:15 PM 78.8 °F 53.6 °F 42% 30.13 in 10.0 mi NNE 8.1 mph - N/A   Clear
6:35 PM 77.0 °F 55.4 °F 47% 30.12 in 10.0 mi NNE 5.8 mph - N/A   Clear
6:55 PM 77.0 °F 55.4 °F 47% 30.12 in 10.0 mi NE 6.9 mph - N/A   Scattered Clouds
7:15 PM 77.0 °F 55.4 °F 47% 30.12 in 10.0 mi NE 5.8 mph - N/A   Clear
7:35 PM 75.2 °F 53.6 °F 47% 30.12 in 10.0 mi NE 4.6 mph - N/A   Clear
7:55 PM 73.4 °F 55.4 °F 53% 30.14 in 10.0 mi Calm Calm - N/A   Clear
8:15 PM 71.6 °F 55.4 °F 57% 30.14 in 10.0 mi Calm Calm - N/A   Clear
8:35 PM 71.6 °F 55.4 °F 57% 30.15 in 10.0 mi Calm Calm - N/A   Clear
8:55 PM 69.8 °F 57.2 °F 64% 30.14 in 10.0 mi Calm Calm - N/A   Clear
9:15 PM 69.8 °F 57.2 °F 64% 30.14 in 10.0 mi Calm Calm - N/A   Clear
9:35 PM 62.6 °F 57.2 °F 82% 30.15 in 10.0 mi Calm Calm - N/A   Clear
9:55 PM 66.2 °F 59.0 °F 78% 30.15 in 10.0 mi Calm Calm - N/A   Clear
10:15 PM 62.6 °F 57.2 °F 82% 30.15 in 10.0 mi Calm Calm - N/A   Clear
10:35 PM 62.6 °F 57.2 °F 82% 30.16 in 10.0 mi Calm Calm - N/A   Clear
10:55 PM 66.2 °F 57.2 °F 73% 30.16 in 10.0 mi Calm Calm - N/A   Clear
11:15 PM 62.6 °F 57.2 °F 82% 30.15 in 10.0 mi Calm Calm - N/A   Clear
11:35 PM 62.6 °F 57.2 °F 82% 30.15 in 10.0 mi Calm Calm - N/A   Clear
11:55 PM 60.8 °F 55.4 °F 82% 30.15 in 10.0 mi Calm Calm - N/A   Clear